Location: Wiesbaden
(50.0830°N, 8.2500°E)
Time: 23:44:11
(UTC+01:00)

N. Korean satellite - Visible Passes

Search period start: 15 November 2019 00:00
Search period end: 25 November 2019 00:00
Orbit: 456 x 506 km, 97.2° (Epoch: 14 November)

Date Brightness Start Highest point End Pass type
(mag) Time Alt. Az. Time Alt. Az. Time Alt. Az.
15 Nov 9.1 05:42:51 10° NE 05:46:00 25° E 05:49:06 10° SSE visible
15 Nov 8.3 17:55:34 10° SSW 17:58:57 38° W 18:02:26 10° NNW visible
16 Nov 10.0 05:18:22 10° NE 05:20:23 14° E 05:22:24 10° ESE visible
16 Nov 6.7 06:50:28 10° N 06:54:08 56° WNW 06:57:45 10° SSW visible
16 Nov 6.9 17:29:53 10° S 17:33:30 75° WSW 17:37:13 10° NNW visible
17 Nov 6.8 06:25:02 10° NNE 06:28:47 75° ESE 06:32:28 10° S visible
17 Nov 10.0 18:39:58 10° WSW 18:41:54 14° W 18:43:52 10° WNW visible
18 Nov 8.2 05:59:49 10° NNE 06:03:19 38° E 06:06:47 10° SSE visible
18 Nov 9.2 18:13:14 10° SSW 18:16:18 25° W 18:19:24 10° NW visible
19 Nov 9.4 05:34:55 10° NE 05:37:47 21° E 05:40:37 10° SE visible
19 Nov 7.8 17:47:14 10° S 17:50:46 47° W 17:54:22 10° NNW visible
20 Nov 10.2 05:10:50 10° ENE 05:12:08 11° E 05:13:25 10° ESE visible
20 Nov 6.6 06:42:17 10° N 06:45:59 69° WNW 06:49:38 10° SSW visible
20 Nov 6.6 17:21:40 10° SSE 17:25:20 88° E 17:29:05 10° NNW visible
21 Nov 7.2 06:16:54 10° NNE 06:20:36 60° E 06:24:13 10° S visible
21 Nov 9.8 18:31:12 10° SW 18:33:38 17° W 18:36:06 10° NW visible
22 Nov 8.6 05:51:45 10° NNE 05:55:06 31° E 05:58:23 10° SSE visible
22 Nov 8.8 18:04:46 10° SSW 18:08:02 30° W 18:11:22 10° NNW visible
23 Nov 9.7 05:27:00 10° NE 05:29:30 17° E 05:31:59 10° SE visible
23 Nov 6.9 06:59:35 10° N 07:03:08 43° WNW 07:06:36 10° SW visible
23 Nov 7.3 17:38:54 10° S 17:42:32 58° W 17:46:14 10° NNW visible
24 Nov 6.5 06:34:04 10° NNE 06:37:48 85° WNW 06:41:26 10° SSW visible
24 Nov 6.6 17:13:27 10° SSE 17:17:07 72° ENE 17:20:51 10° N visible
24 Nov 10.2 18:49:52 10° WSW 18:51:00 11° W 18:52:09 10° WNW visible
